Tracking 19709 objects as of 20-Jun-2019
HD Live streaming from Space Station
objects crossing your sky now

FENGYUN 1C DEB

Track FENGYUN 1C DEB now!
10-day predictions


NORAD ID: 30357
Int'l Code: 1999-025ABU
Perigee: 849.2 km
Apogee: 923.7 km
Inclination: 99.1 °
Period: 102.5 minutes
Semi major axis: 7257 km
RCS: 0.042 m2 (small)
Launch date: May 10, 1999
Source: People's Republic of China (PRC)
Launch site: Taiyaun Space Center, China (TSC)

Note: This is SATELLITE DEBRIS
aabbcc
Your satellite tracking list
Your tracking list is empty




NASA's NSSDC Master Catalog

Two Line Element Set (TLE):
1 30357U 99025ABU 19170.07505545 -.00000061  00000-0 -10467-4 0  9993
2 30357  99.0889 199.3305 0051297  93.6771 328.2343 14.04197015635641
Source of the keplerian elements: AFSPC